Wind_Speed
8 9 11 12 13 15 16 17 17 17 17 18 18 19 19 20 21 21 21 21 22 23 23 24 25 26 27 27 28 28 28 29 30 31 32 33 33 34 34 34 35 35 35
8 9 9 11 12 13 14 15 17 18 18 19 21 20 21 21 22 22 22 23 23 24 25 26 27 28 28 29 29 30 31 32 32 33 35 36 36 37 38 38 38 38 38
8 9 10 11 12 13 15 16 17 18 19 20 20 21 21 22 22 23 23 23 24 24 25 26 27 28 29 30 31 32 33 34 34 35 36 38 38 39 40 40 41 41 41
7 9 10 10 12 13 15 15 16 18 19 20 21 21 22 23 23 24 24 24 24 24 25 26 27 28 29 31 32 33 34 36 37 38 38 39 40 41 41 41 42 43 43
9 9 10 11 12 13 14 15 16 18 20 21 21 21 22 22 23 23 23 24 24 25 26 27 28 29 31 33 35 36 37 39 40 41 41 42 43 43 44 45 46 46 46
11 11 11 12 13 14 15 16 17 18 18 19 20 20 20 21 22 23 24 25 27 28 28 30 30 31 33 35 36 38 39 40 41 43 43 45 45 46 47 47 48 49 49
13 13 13 14 15 16 17 17 17 17 17 18 19 20 21 22 22 24 25 27 29 30 32 33 34 34 36 38 40 41 42 43 44 45 46 47 48 49 50 50 52 53 53
16 16 16 17 18 18 19 19 18 18 18 18 19 20 22 23 25 27 29 30 32 34 35 36 38 39 40 42 43 43 45 46 47 47 49 50 52 53 53 54 55 55 55
19 19 19 19 19 20 20 21 21 21 21 22 23 24 25 27 29 30 32 33 34 36 37 38 39 40 42 44 45 46 47 49 50 51 53 54 55 56 57 58 58 58 58
22 22 21 21 21 21 22 23 24 25 26 26 27 28 29 30 31 32 34 36 37 39 40 41 42 43 45 47 48 50 51 52 53 55 56 57 59 60 61 61 61 61 61
24 24 24 24 24 24 25 25 26 28 29 30 31 32 32 33 34 35 37 38 40 42 43 43 44 46 47 49 51 53 54 56 57 58 59 61 62 63 64 64 64 64 64
27 26 27 27 27 27 28 28 30 31 32 33 33 33 33 33 35 37 38 40 41 43 45 46 48 50 51 53 54 56 58 59 61 62 63 64 65 65 65 65 66 65 65
30 31 30 29 30 30 30 31 32 33 33 33 33 34 34 35 37 39 40 41 43 45 48 50 52 54 55 57 59 60 62 63 63 64 64 64 64 64 63 63 64 63 63
32 33 32 32 32 31 32 32 32 33 33 34 35 36 37 38 40 41 42 44 46 49 51 54 56 57 59 60 61 62 62 62 62 61 61 61 60 60 59 59 58 57 56
33 34 33 33 32 31 31 32 32 33 33 34 36 37 39 40 41 43 45 47 50 53 55 56 58 59 60 60 60 60 59 59 58 57 56 55 55 54 54 53 52 52 51
33 32 31 29 28 29 30 31 32 33 34 36 37 39 41 43 45 47 50 52 54 55 56 57 58 58 58 58 58 57 56 55 54 53 51 51 50 49 48 48 47 46 45
29 28 27 26 26 28 29 30 31 32 34 37 40 42 44 46 48 50 52 54 55 56 56 56 56 56 55 55 54 53 52 51 50 49 48 47 46 45 43 42 42 40 39
25 24 24 24 25 27 28 29 31 34 36 39 41 44 46 48 50 51 53 54 55 55 54 54 53 53 51 50 49 48 47 46 45 44 43 42 41 39 38 37 36 35 34
21 21 22 24 26 28 30 32 34 37 39 41 43 45 47 49 50 51 51 52 52 52 51 50 49 48 47 45 44 44 43 42 41 41 40 38 37 35 34 33 32 31 31
19 21 24 26 28 30 32 35 37 39 41 43 44 46 47 48 48 48 48 48 47 47 46 45 44 43 43 42 41 40 39 39 38 37 36 35 34 33 32 31 30 29 28
21 23 25 27 29 32 34 36 38 41 42 44 45 45 46 46 46 46 45 44 43 43 42 41 41 40 39 38 38 37 36 36 35 35 34 33 32 31 30 29 27 27 26
21 24 27 29 32 34 36 38 40 41 42 43 43 43 42 43 43 42 41 41 40 39 39 38 37 37 36 35 34 34 34 33 33 32 31 30 30 29 28 26 26 25 25
24 27 29 31 33 35 37 38 39 40 40 40 40 40 40 40 39 39 38 37 37 36 35 34 34 34 33 32 32 32 31 31 30 29 28 28 27 27 26 26 25 25 24
28 30 31 32 34 35 36 37 37 37 37 37 37 37 37 37 35 35 34 34 34 33 33 33 32 32 31 30 30 30 29 28 27 26 26 26 25 25 24 24 24 24 24
30 31 32 33 34 35 35 35 35 34 34 34 34 34 34 33 32 32 32 32 31 31 31 31 30 30 29 28 28 28 27 26 26 26 25 25 24 23 23 23 23 23 23
30 31 32 32 33 33 33 32 32 31 32 32 32 32 31 31 30 30 30 30 30 29 29 29 28 28 28 27 26 26 26 26 26 25 25 24 23 23 23 23 23 23 23
Wind_Direction
223 223 220 221 224 226 229 232 233 235 238 241 244 246 250 254 256 260 263 265 268 271 272 273 275 276 277 278 279 280 281 283 284 285 285 285 285 285 285 284 284 284 284
228 228 229 227 228 231 234 237 240 244 245 246 248 251 254 258 260 262 264 267 270 272 273 274 276 277 278 279 280 280 281 282 284 285 286 286 285 285 285 285 285 284 283
234 234 237 235 234 238 241 243 245 248 249 251 253 255 258 259 262 265 268 271 272 274 276 277 278 278 279 281 281 282 282 283 284 285 286 287 286 285 284 284 283 283 283
254 246 243 242 244 247 248 248 249 252 255 255 259 262 263 263 265 269 270 273 274 277 278 279 279 280 281 282 283 283 283 284 285 285 285 285 285 285 285 283 282 282 283
265 258 256 255 256 256 257 258 260 261 261 263 263 264 265 266 267 270 272 274 277 280 280 282 283 283 284 284 284 284 284 284 285 286 285 285 285 285 284 283 283 282 282
272 270 268 264 263 263 265 265 265 268 270 268 265 267 268 268 268 270 272 275 278 281 281 283 285 286 286 286 287 287 286 286 286 286 285 285 285 285 284 283 283 282 282
275 274 273 269 268 268 271 273 273 276 281 276 270 269 270 271 271 274 278 282 283 284 285 287 287 287 286 287 288 288 287 287 287 287 286 286 285 285 284 284 283 283 283
274 275 276 273 272 272 272 274 275 278 279 279 276 275 274 276 278 280 282 284 285 286 286 287 288 288 288 289 289 289 289 289 289 288 288 287 287 286 285 285 284 284 283
275 276 278 276 275 275 277 276 274 277 279 280 279 280 281 282 282 282 284 285 287 288 288 289 290 290 290 290 290 290 290 290 290 289 289 289 288 287 287 286 285 284 283
273 276 277 276 276 276 278 277 274 276 278 281 282 283 284 284 284 285 287 288 289 290 290 291 292 291 291 291 291 291 291 290 290 290 289 288 288 287 287 286 285 284 284
273 275 275 274 274 275 276 278 278 279 281 282 282 283 283 284 286 288 289 290 291 291 292 292 292 292 292 292 291 291 291 290 290 289 289 288 287 286 286 285 284 284 283
271 273 275 274 273 275 276 278 280 281 281 283 284 284 286 287 289 290 291 291 292 292 293 294 294 294 294 293 293 292 292 291 291 290 289 288 287 286 285 284 283 282 282
270 271 274 275 274 275 277 278 280 282 283 284 285 286 287 289 290 291 292 293 293 294 295 295 295 295 295 294 294 294 293 293 292 291 290 289 287 286 285 284 283 282 282
268 269 270 273 273 274 274 276 279 281 284 287 290 291 290 291 291 291 293 294 295 295 295 295 295 296 295 295 295 295 294 294 292 291 290 289 287 286 285 285 284 283 283
269 269 268 269 270 272 275 279 282 285 287 289 291 293 294 295 295 295 296 296 296 296 296 296 297 297 297 296 296 296 295 294 293 291 291 289 289 288 287 286 285 284 284
267 269 269 269 271 276 281 284 286 289 291 293 295 296 296 297 297 298 298 298 298 298 298 299 299 299 298 298 297 296 296 295 294 293 292 292 291 290 290 289 288 287 286
264 266 268 271 277 283 287 290 292 294 295 296 297 298 299 299 300 300 300 300 300 301 300 300 300 300 299 299 298 297 296 296 295 294 294 294 294 292 292 291 291 289 288
262 268 274 279 284 287 290 293 295 297 298 300 300 301 301 301 301 301 301 301 301 301 301 301 301 301 300 300 299 298 298 298 297 297 296 296 295 294 294 293 292 291 290
269 275 280 287 292 294 296 298 299 300 301 302 302 302 302 302 302 302 302 302 302 302 303 303 303 302 301 301 300 299 299 299 298 298 297 296 296 295 295 294 293 292 291
278 286 292 295 297 298 300 302 303 304 304 305 304 304 304 304 304 304 304 304 304 305 305 305 305 304 303 303 302 301 301 300 300 298 297 296 296 295 295 294 293 293 292
290 294 297 300 302 303 305 306 306 307 307 307 308 308 308 307 308 308 308 308 308 308 308 308 307 307 306 305 304 304 303 303 302 300 298 297 296 296 295 295 294 293 293
298 301 303 304 306 307 308 308 309 309 309 310 310 309 310 310 311 311 311 311 311 311 310 310 310 309 309 308 307 306 306 305 304 303 301 299 298 296 295 295 295 295 295
305 306 307 308 309 310 310 310 311 311 312 312 313 313 314 314 314 314 314 314 314 314 313 313 313 312 311 310 310 310 309 308 307 305 303 302 300 297 296 295 295 295 296
308 309 310 311 311 312 312 312 313 314 315 316 317 317 318 318 318 318 318 318 317 317 316 316 316 316 315 314 313 313 313 312 310 308 306 305 302 300 298 297 295 295 296
311 312 312 312 313 313 314 315 316 317 318 319 320 321 321 321 321 322 322 322 322 321 321 321 320 319 318 318 317 317 316 315 315 313 311 308 305 303 301 300 298 297 296
312 312 312 313 314 315 316 317 318 320 321 322 323 323 324 324 324 325 325 326 327 327 326 326 326 325 324 322 322 321 320 319 318 316 314 310 307 305 303 302 300 299 298
Height
5831 5833 5834 5836 5838 5839 5841 5844 5846 5848 5850 5851 5853 5854 5856 5857 5858 5859 5860 5860 5860 5860 5860 5860 5860 5860 5860 5859 5859 5858 5858 5857 5856 5855 5854 5854 5854 5852 5852 5851 5850 5850 5849
5830 5831 5833 5834 5836 5838 5839 5841 5843 5844 5846 5847 5849 5850 5852 5852 5853 5854 5854 5855 5855 5855 5855 5855 5854 5854 5853 5853 5852 5852 5851 5850 5850 5849 5847 5846 5845 5844 5843 5842 5841 5840 5839
5828 5830 5831 5832 5834 5835 5837 5838 5839 5840 5842 5843 5844 5845 5846 5847 5848 5848 5849 5849 5849 5849 5849 5848 5848 5847 5847 5846 5845 5844 5843 5842 5841 5840 5839 5837 5835 5834 5833 5832 5830 5829 5828
5828 5828 5829 5830 5831 5833 5834 5834 5835 5836 5837 5838 5839 5840 5841 5842 5842 5843 5843 5843 5843 5843 5842 5841 5841 5840 5839 5838 5837 5836 5835 5834 5832 5831 5829 5827 5825 5823 5822 5821 5819 5818 5816
5826 5826 5827 5828 5829 5830 5831 5831 5832 5832 5833 5833 5834 5834 5835 5835 5836 5836 5837 5837 5837 5836 5835 5834 5834 5833 5832 5830 5829 5828 5826 5824 5822 5820 5819 5817 5815 5813 5811 5809 5807 5806 5804
5825 5825 5826 5826 5826 5827 5827 5827 5828 5828 5828 5828 5828 5829 5829 5830 5830 5830 5830 5830 5830 5829 5828 5827 5826 5825 5823 5821 5819 5817 5816 5814 5812 5809 5807 5805 5803 5801 5798 5796 5794 5792 5791
5822 5823 5823 5823 5823 5823 5823 5823 5823 5823 5823 5823 5823 5823 5823 5824 5824 5824 5823 5823 5822 5821 5820 5818 5817 5815 5813 5811 5809 5807 5804 5802 5800 5798 5795 5793 5790 5787 5785 5782 5780 5777 5775
5819 5818 5819 5818 5818 5818 5818 5819 5819 5819 5819 5818 5818 5818 5818 5818 5818 5817 5816 5815 5814 5813 5811 5809 5807 5805 5803 5800 5797 5795 5792 5790 5787 5784 5782 5778 5775 5772 5769 5767 5764 5762 5760
5814 5814 5813 5813 5813 5813 5813 5813 5813 5814 5814 5813 5813 5813 5812 5811 5810 5809 5808 5806 5805 5803 5801 5799 5797 5794 5791 5788 5785 5783 5780 5776 5773 5770 5767 5763 5760 5756 5753 5750 5747 5745 5743
5809 5808 5808 5808 5808 5808 5808 5808 5808 5808 5807 5807 5807 5806 5805 5804 5802 5801 5799 5797 5795 5792 5790 5788 5786 5782 5779 5775 5773 5769 5766 5762 5758 5755 5751 5747 5743 5739 5735 5732 5729 5726 5723
5803 5802 5802 5802 5802 5802 5802 5801 5801 5801 5800 5800 5799 5798 5797 5795 5793 5791 5789 5787 5784 5781 5779 5777 5774 5770 5767 5763 5759 5755 5752 5747 5743 5739 5734 5730 5725 5721 5717 5713 5709 5706 5703
5797 5797 5796 5796 5796 5795 5795 5795 5794 5793 5792 5791 5790 5789 5788 5786 5784 5781 5779 5776 5773 5770 5767 5763 5760 5756 5753 5749 5744 5740 5735 5731 5726 5721 5716 5711 5706 5701 5697 5692 5688 5685 5681
5790 5789 5789 5789 5789 5788 5788 5788 5786 5785 5784 5783 5781 5780 5778 5777 5774 5771 5769 5766 5762 5758 5754 5750 5746 5742 5737 5732 5728 5722 5717 5712 5706 5701 5695 5690 5685 5680 5676 5672 5668 5664 5661
5782 5782 5782 5782 5781 5781 5780 5779 5778 5777 5775 5774 5772 5770 5769 5767 5764 5761 5758 5754 5750 5746 5741 5736 5731 5726 5721 5715 5709 5704 5698 5692 5686 5681 5675 5670 5665 5660 5656 5652 5648 5645 5642
5774 5774 5774 5773 5773 5772 5772 5771 5770 5768 5766 5765 5763 5761 5758 5756 5752 5749 5745 5741 5737 5732 5726 5721 5715 5709 5703 5697 5691 5685 5679 5673 5667 5662 5656 5651 5647 5642 5638 5634 5630 5627 5624
5767 5767 5766 5766 5765 5765 5764 5763 5761 5760 5758 5756 5753 5751 5747 5744 5740 5736 5731 5726 5721 5716 5710 5704 5698 5691 5685 5679 5673 5667 5660 5655 5649 5644 5639 5635 5630 5626 5622 5618 5615 5612 5609
5759 5759 5759 5759 5759 5758 5757 5755 5753 5751 5749 5746 5743 5739 5735 5731 5727 5722 5716 5711 5705 5699 5693 5687 5680 5674 5668 5662 5656 5650 5644 5639 5634 5629 5624 5620 5616 5612 5608 5605 5602 5599 5596
5752 5752 5752 5752 5752 5751 5749 5747 5745 5743 5740 5736 5732 5727 5723 5718 5713 5707 5701 5695 5689 5684 5677 5671 5664 5658 5652 5646 5640 5635 5629 5624 5620 5615 5611 5607 5603 5599 5596 5593 5590 5587 5585
5747 5747 5746 5745 5744 5743 5740 5738 5735 5732 5729 5725 5721 5716 5710 5705 5699 5693 5687 5680 5674 5668 5661 5655 5649 5643 5637 5632 5626 5621 5616 5612 5608 5603 5599 5595 5592 5588 5585 5582 5580 5578 5575
5741 5740 5739 5738 5736 5734 5731 5728 5724 5721 5717 5713 5708 5702 5696 5691 5685 5679 5673 5666 5659 5653 5647 5641 5635 5630 5624 5619 5614 5609 5605 5600 5596 5592 5588 5585 5581 5578 5576 5573 5571 5569 5567
5734 5733 5732 5730 5727 5725 5721 5718 5714 5709 5705 5700 5695 5689 5682 5676 5670 5664 5658 5652 5646 5640 5635 5629 5623 5618 5613 5608 5603 5599 5594 5590 5586 5582 5578 5575 5572 5569 5567 5564 5562 5560 5559
5727 5726 5724 5721 5718 5715 5711 5707 5703 5698 5693 5688 5682 5676 5670 5664 5658 5652 5646 5640 5635 5629 5624 5618 5613 5608 5603 5598 5594 5589 5585 5580 5577 5573 5569 5566 5563 5561 5559 5556 5555 5553 5551
5720 5718 5716 5713 5709 5705 5702 5697 5692 5687 5682 5676 5671 5665 5659 5653 5647 5641 5636 5630 5625 5619 5614 5609 5604 5599 5594 5589 5585 5581 5576 5572 5568 5564 5561 5558 5555 5553 5551 5549 5547 5545 5544
5713 5710 5707 5704 5700 5696 5692 5687 5682 5677 5671 5666 5660 5655 5649 5643 5638 5632 5627 5622 5616 5611 5606 5601 5596 5591 5586 5582 5577 5573 5569 5565 5561 5557 5554 5551 5549 5546 5544 5542 5540 5538 5536
5704 5701 5698 5694 5690 5686 5682 5677 5672 5667 5662 5657 5651 5646 5641 5635 5630 5625 5620 5614 5609 5604 5599 5594 5589 5584 5579 5575 5571 5566 5562 5558 5555 5551 5548 5545 5542 5540 5537 5535 5533 5531 5529
5695 5692 5689 5685 5681 5677 5672 5668 5663 5659 5654 5649 5644 5639 5634 5628 5623 5618 5613 5608 5603 5598 5593 5588 5583 5578 5573 5569 5565 5561 5557 5553 5549 5545 5542 5539 5536 5534 5531 5529 5527 5525 5523